• In Hungary
  • List of Countries
  • For 7 days
  • Water Temperature
  • Satellite Maps
  • Weather Map
  • News
  • Weather Widgets
  • user-avatar
    Login

    Hourly Weather Surprise

    Today, 25 September, Tuesday

    Time Temperature Precipitation Wind Pressure Humidity
    00:00 +32°C° 0 mm 2 mps 727 mmHg 22%
    01:00 +31°C° 0 mm 2 mps 727 mmHg 21%
    02:00 +31°C° 0 mm 1 mps 727 mmHg 21%
    03:00 +30°C° 0 mm 1 mps 727 mmHg 22%
    04:00 +28°C° 0 mm 0 mps 727 mmHg 23%
    05:00 +28°C° 0 mm 0 mps 728 mmHg 24%
    06:00 +28°C° 0 mm 0 mps 728 mmHg 23%
    07:00 +31°C° 0 mm 1 mps 728 mmHg 22%
    08:00 +32°C° 0 mm 1 mps 729 mmHg 22%
    09:00 +33°C° 0 mm 1 mps 729 mmHg 21%
    10:00 +34°C° 0 mm 1 mps 729 mmHg 19%
    11:00 +36°C° 0 mm 2 mps 729 mmHg 18%
    12:00 +37°C° 0 mm 2 mps 728 mmHg 18%
    13:00 +38°C° 0 mm 2 mps 728 mmHg 18%
    14:00 +38°C° 0 mm 2 mps 728 mmHg 18%
    15:00 +39°C° 0 mm 2 mps 728 mmHg 18%
    16:00 +39°C° 0 mm 2 mps 727 mmHg 18%
    17:00 +39°C° 0 mm 2 mps 727 mmHg 18%
    18:00 +38°C° 0 mm 2 mps 728 mmHg 20%
    19:00 +37°C° 0 mm 2 mps 728 mmHg 21%
    20:00 +36°C° 0 mm 2 mps 728 mmHg 22%
    21:00 +35°C° 0 mm 2 mps 728 mmHg 23%
    22:00 +35°C° 0 mm 2 mps 729 mmHg 24%
    23:00 +34°C° 0 mm 2 mps 729 mmHg 25%

    Tomorrow, 26 September, Wednesday

    Time Temperature Precipitation Wind Pressure Humidity
    00:00 +32°C° 0 mm 2 mps 729 mmHg 26%
    01:00 +32°C° 0 mm 2 mps 729 mmHg 27%
    02:00 +31°C° 0 mm 1 mps 729 mmHg 29%
    03:00 +31°C° 0 mm 1 mps 729 mmHg 30%
    04:00 +30°C° 0 mm 1 mps 729 mmHg 31%
    05:00 +30°C° 0 mm 1 mps 729 mmHg 33%
    06:00 +31°C° 0 mm 1 mps 729 mmHg 31%
    07:00 +31°C° 0 mm 1 mps 730 mmHg 29%
    08:00 +32°C° 0 mm 1 mps 730 mmHg 28%
    09:00 +34°C° 0 mm 1 mps 730 mmHg 25%
    10:00 +35°C° 0 mm 1 mps 730 mmHg 22%
    11:00 +35°C° 0 mm 0 mps 730 mmHg 20%
    12:00 +37°C° 0 mm 1 mps 730 mmHg 18%
    13:00 +39°C° 0 mm 1 mps 729 mmHg 17%
    14:00 +40°C° 0 mm 1 mps 729 mmHg 16%
    15:00 +40°C° 0 mm 2 mps 728 mmHg 15%
    16:00 +40°C° 0 mm 2 mps 728 mmHg 15%
    17:00 +41°C° 0 mm 2 mps 727 mmHg 14%
    18:00 +39°C° 0 mm 2 mps 728 mmHg 15%
    19:00 +38°C° 0 mm 2 mps 728 mmHg 16%
    20:00 +37°C° 0 mm 2 mps 728 mmHg 17%
    21:00 +36°C° 0 mm 2 mps 728 mmHg 18%
    22:00 +35°C° 0 mm 2 mps 729 mmHg 18%
    23:00 +34°C° 0 mm 1 mps 729 mmHg 18%

    Day after tomorrow, 27 September, Thursday

    Time Temperature Precipitation Wind Pressure Humidity
    00:00 +33°C° 0 mm 1 mps 729 mmHg 19%
    01:00 +32°C° 0 mm 1 mps 729 mmHg 19%
    02:00 +32°C° 0 mm 1 mps 728 mmHg 19%
    03:00 +31°C° 0 mm 2 mps 728 mmHg 20%
    04:00 +31°C° 0 mm 2 mps 728 mmHg 20%
    05:00 +30°C° 0 mm 2 mps 728 mmHg 20%
    06:00 +31°C° 0 mm 2 mps 729 mmHg 20%
    07:00 +32°C° 0 mm 2 mps 729 mmHg 20%
    08:00 +34°C° 0 mm 3 mps 729 mmHg 20%
    09:00 +35°C° 0 mm 3 mps 730 mmHg 21%
    10:00 +37°C° 0 mm 3 mps 730 mmHg 22%
    11:00 +38°C° 0 mm 3 mps 730 mmHg 22%
    12:00 +39°C° 0 mm 2 mps 729 mmHg 21%
    13:00 +40°C° 0 mm 2 mps 728 mmHg 19%
    14:00 +40°C° 0 mm 1 mps 728 mmHg 17%
    15:00 +41°C° 0 mm 1 mps 727 mmHg 16%
    16:00 +41°C° 0 mm 2 mps 727 mmHg 16%
    17:00 +41°C° 0 mm 2 mps 726 mmHg 15%
    18:00 +39°C° 0 mm 1 mps 727 mmHg 17%
    19:00 +37°C° 0 mm 1 mps 727 mmHg 18%
    20:00 +36°C° 0 mm 1 mps 727 mmHg 19%
    21:00 +35°C° 0 mm 1 mps 728 mmHg 20%
    22:00 +34°C° 0 mm 1 mps 728 mmHg 21%
    23:00 +34°C° 0 mm 1 mps 728 mmHg 22%

    28 September, Friday

    Time Temperature Precipitation Wind Pressure Humidity
    00:00 +33°C° 0 mm 1 mps 728 mmHg 22%
    01:00 +33°C° 0 mm 1 mps 728 mmHg 21%
    02:00 +32°C° 0 mm 2 mps 728 mmHg 21%
    03:00 +32°C° 0 mm 2 mps 728 mmHg 21%
    04:00 +31°C° 0 mm 2 mps 727 mmHg 22%
    05:00 +31°C° 0 mm 2 mps 727 mmHg 22%
    06:00 +32°C° 0 mm 2 mps 728 mmHg 21%
    07:00 +34°C° 0 mm 2 mps 728 mmHg 20%
    08:00 +35°C° 0 mm 2 mps 729 mmHg 19%
    09:00 +36°C° 0 mm 2 mps 729 mmHg 18%
    10:00 +38°C° 0 mm 2 mps 729 mmHg 17%
    11:00 +39°C° 0 mm 2 mps 729 mmHg 16%
    12:00 +40°C° 0 mm 2 mps 728 mmHg 15%
    13:00 +41°C° 0 mm 2 mps 727 mmHg 14%
    14:00 +41°C° 0 mm 1 mps 727 mmHg 14%
    15:00 +41°C° 0 mm 1 mps 727 mmHg 14%
    16:00 +41°C° 0 mm 2 mps 726 mmHg 14%
    17:00 +41°C° 0 mm 2 mps 726 mmHg 14%
    18:00 +40°C° 0 mm 2 mps 726 mmHg 15%
    19:00 +39°C° 0 mm 2 mps 727 mmHg 16%
    20:00 +38°C° 0 mm 2 mps 727 mmHg 18%
    21:00 +36°C° 0 mm 1 mps 727 mmHg 18%
    22:00 +35°C° 0 mm 1 mps 728 mmHg 19%
    23:00 +35°C° 0 mm 1 mps 728 mmHg 20%

    29 September, Saturday

    Time Temperature Precipitation Wind Pressure Humidity
    00:00 +34°C° 0 mm 1 mps 728 mmHg 20%
    01:00 +33°C° 0 mm 1 mps 727 mmHg 21%
    02:00 +32°C° 0 mm 1 mps 727 mmHg 21%
    03:00 +32°C° 0 mm 1 mps 727 mmHg 22%
    04:00 +31°C° 0 mm 1 mps 727 mmHg 22%
    05:00 +31°C° 0 mm 1 mps 727 mmHg 23%
    06:00 +32°C° 0 mm 1 mps 728 mmHg 22%
    07:00 +33°C° 0 mm 1 mps 728 mmHg 21%
    08:00 +33°C° 0 mm 1 mps 728 mmHg 20%
    09:00 +35°C° 0 mm 1 mps 728 mmHg 19%
    10:00 +37°C° 0 mm 2 mps 728 mmHg 17%
    11:00 +38°C° 0 mm 2 mps 728 mmHg 16%
    12:00 +39°C° 0 mm 3 mps 728 mmHg 16%
    13:00 +40°C° 0 mm 3 mps 727 mmHg 16%
    14:00 +42°C° 0 mm 4 mps 727 mmHg 16%
    15:00 +42°C° 0 mm 4 mps 727 mmHg 17%
    16:00 +41°C° 0 mm 4 mps 726 mmHg 17%
    17:00 +41°C° 0 mm 4 mps 726 mmHg 18%
    18:00 +40°C° 0 mm 4 mps 726 mmHg 20%
    19:00 +38°C° 0 mm 4 mps 727 mmHg 22%
    20:00 +37°C° 0 mm 3 mps 727 mmHg 24%
    21:00 +36°C° 0 mm 3 mps 727 mmHg 27%
    22:00 +35°C° 0 mm 3 mps 727 mmHg 30%
    23:00 +35°C° 0 mm 2 mps 727 mmHg 33%

    30 September, Sunday

    Time Temperature Precipitation Wind Pressure Humidity
    00:00 +34°C° 0 mm 2 mps 727 mmHg 36%
    01:00 +32°C° 0 mm 1 mps 727 mmHg 39%
    02:00 +29°C° 0 mm 0 mps 727 mmHg 42%
    03:00 +31°C° 0 mm 1 mps 727 mmHg 42%
    04:00 +31°C° 0 mm 1 mps 727 mmHg 42%
    05:00 +30°C° 0 mm 1 mps 727 mmHg 42%
    06:00 +31°C° 0 mm 1 mps 727 mmHg 40%
    07:00 +32°C° 0 mm 1 mps 728 mmHg 39%
    08:00 +32°C° 0 mm 1 mps 728 mmHg 37%
    09:00 +35°C° 0 mm 2 mps 728 mmHg 34%
    10:00 +36°C° 0 mm 3 mps 728 mmHg 32%
    11:00 +37°C° 0 mm 3 mps 728 mmHg 29%
    12:00 +38°C° 0 mm 4 mps 728 mmHg 28%
    13:00 +40°C° 0 mm 4 mps 727 mmHg 27%
    14:00 +40°C° 0 mm 5 mps 727 mmHg 25%
    15:00 +40°C° 0 mm 5 mps 726 mmHg 27%
    16:00 +39°C° 0 mm 5 mps 726 mmHg 29%
    17:00 +37°C° 0 mm 5 mps 726 mmHg 31%
    18:00 +36°C° 0.8 mm 5 mps 726 mmHg 35%
    19:00 +35°C° 0.8 mm 5 mps 726 mmHg 39%
    20:00 +34°C° 0.8 mm 5 mps 727 mmHg 43%
    21:00 +33°C° 1.7 mm 5 mps 727 mmHg 48%
    22:00 +32°C° 1.7 mm 5 mps 727 mmHg 52%
    23:00 +30°C° 1.7 mm 5 mps 727 mmHg 57%
    Show more